Time,TemperatureF,DewpointF,PressureIn,WindDirection,WindDirectionDegrees,WindSpeedMPH,WindSpeedGustMPH,Humidity,HourlyPrecipIn,Conditions,Clouds,dailyrainin,SoftwareType,DateUTC
2013-04-16 00:09:00,36.9,33.4,29.83,NNW,339,0.0,5.0,87,0.00,,,0.00,Wunderground v.1.15,2013-04-16 07:09:00,
2013-04-16 00:19:00,37.0,33.5,29.83,NNW,339,0.0,0.0,87,0.00,,,0.00,Wunderground v.1.15,2013-04-16 07:19:00,
2013-04-16 00:29:00,37.3,33.5,29.83,NNW,339,0.0,1.0,86,0.00,,,0.00,Wunderground v.1.15,2013-04-16 07:29:00,
2013-04-16 00:39:00,37.6,33.5,29.83,NNW,339,1.0,1.0,85,0.00,,,0.00,Wunderground v.1.15,2013-04-16 07:39:00,
2013-04-16 00:44:00,38.0,33.6,29.83,NNW,339,1.0,3.0,84,0.00,,,0.00,Wunderground v.1.15,2013-04-16 07:44:00,
2013-04-16 00:54:00,38.3,33.3,29.83,NNW,339,1.0,2.0,82,0.00,,,0.00,Wunderground v.1.15,2013-04-16 07:54:00,
2013-04-16 01:04:00,39.1,33.8,29.84,NNW,339,1.0,3.0,81,0.00,,,0.00,Wunderground v.1.15,2013-04-16 08:04:00,
2013-04-16 01:09:00,39.2,33.5,29.84,NNW,339,1.0,3.0,80,0.00,,,0.00,Wunderground v.1.15,2013-04-16 08:09:00,
2013-04-16 01:19:00,39.5,33.8,29.84,NNW,330,1.0,3.0,80,0.00,,,0.00,Wunderground v.1.15,2013-04-16 08:19:00,
2013-04-16 01:29:00,39.8,34.1,29.84,NNW,330,1.0,3.0,80,0.00,,,0.00,Wunderground v.1.15,2013-04-16 08:29:00,
2013-04-16 01:34:00,39.9,34.2,29.84,NNW,330,1.0,3.0,80,0.00,,,0.00,Wunderground v.1.15,2013-04-16 08:34:00,
2013-04-16 01:44:00,40.5,34.5,29.84,NW,320,2.0,7.0,79,0.00,,,0.00,Wunderground v.1.15,2013-04-16 08:44:00,
2013-04-16 01:49:00,40.5,34.5,29.84,NNW,335,2.0,2.0,79,0.00,,,0.00,Wunderground v.1.15,2013-04-16 08:49:00,
2013-04-16 01:59:00,40.3,34.3,29.84,West,274,1.0,1.0,79,0.00,,,0.00,Wunderground v.1.15,2013-04-16 08:59:00,
2013-04-16 02:04:00,40.2,34.2,29.84,NW,312,1.0,7.0,79,0.00,,,0.00,Wunderground v.1.15,2013-04-16 09:04:00,
2013-04-16 02:14:00,39.6,33.9,29.84,NW,312,0.0,7.0,80,0.00,,,0.00,Wunderground v.1.15,2013-04-16 09:14:00,
2013-04-16 02:24:00,39.6,34.2,29.84,North,10,1.0,5.0,81,0.00,,,0.00,Wunderground v.1.15,2013-04-16 09:24:00,
2013-04-16 02:29:00,39.8,34.4,29.84,NNW,335,1.0,5.0,81,0.00,,,0.00,Wunderground v.1.15,2013-04-16 09:29:00,
2013-04-16 02:39:00,40.5,34.5,29.84,North,0,2.0,2.0,79,0.00,,,0.00,Wunderground v.1.15,2013-04-16 09:39:00,
2013-04-16 02:49:00,40.6,34.3,29.84,NW,316,2.0,2.0,78,0.00,,,0.00,Wunderground v.1.15,2013-04-16 09:49:00,
2013-04-16 02:54:00,40.8,34.1,29.84,North,357,2.0,6.0,77,0.00,,,0.00,Wunderground v.1.15,2013-04-16 09:54:00,
2013-04-16 03:04:00,40.8,33.8,29.84,NW,323,1.0,6.0,76,0.00,,,0.00,Wunderground v.1.15,2013-04-16 10:04:00,
2013-04-16 03:14:00,40.6,33.6,29.84,NNW,329,1.0,8.0,76,0.00,,,0.00,Wunderground v.1.15,2013-04-16 10:14:00,
2013-04-16 03:19:00,40.5,33.5,29.84,NNW,329,1.0,1.0,76,0.00,,,0.00,Wunderground v.1.15,2013-04-16 10:19:00,
2013-04-16 03:29:00,40.1,33.8,29.86,NW,325,1.0,8.0,78,0.00,,,0.00,Wunderground v.1.15,2013-04-16 10:29:00,
2013-04-16 03:39:00,39.8,33.5,29.86,NW,325,1.0,1.0,78,0.00,,,0.00,Wunderground v.1.15,2013-04-16 10:39:00,
2013-04-16 03:44:00,39.3,33.3,29.86,NW,325,0.0,5.0,79,0.00,,,0.00,Wunderground v.1.15,2013-04-16 10:44:00,
2013-04-16 03:54:00,38.5,33.2,29.86,NW,325,0.0,5.0,81,0.00,,,0.00,Wunderground v.1.15,2013-04-16 10:54:00,
2013-04-16 04:04:00,37.9,33.2,29.86,NW,325,1.0,5.0,83,0.00,,,0.00,Wunderground v.1.15,2013-04-16 11:04:00,
2013-04-16 04:09:00,37.8,33.1,29.86,NW,325,0.0,5.0,83,0.00,,,0.00,Wunderground v.1.15,2013-04-16 11:09:00,
2013-04-16 04:19:00,37.5,32.8,29.87,NW,325,0.0,3.0,83,0.00,,,0.00,Wunderground v.1.15,2013-04-16 11:19:00,
2013-04-16 04:29:00,37.6,32.9,29.88,NW,325,0.0,3.0,83,0.00,,,0.00,Wunderground v.1.15,2013-04-16 11:29:00,
2013-04-16 04:34:00,37.6,32.9,29.88,NW,325,0.0,3.0,83,0.00,,,0.00,Wunderground v.1.15,2013-04-16 11:34:00,
2013-04-16 04:44:00,37.5,32.8,29.88,NW,325,0.0,5.0,83,0.00,,,0.00,Wunderground v.1.15,2013-04-16 11:44:00,
2013-04-16 04:54:00,37.5,33.1,29.88,NW,325,0.0,5.0,84,0.00,,,0.00,Wunderground v.1.15,2013-04-16 11:54:00,
2013-04-16 04:59:00,37.3,32.9,29.89,NW,325,0.0,5.0,84,0.00,,,0.00,Wunderground v.1.15,2013-04-16 11:59:00,
2013-04-16 05:09:00,37.6,32.9,29.89,WSW,248,1.0,1.0,83,0.00,,,0.00,Wunderground v.1.15,2013-04-16 12:09:00,
2013-04-16 05:19:00,37.8,32.8,29.89,WSW,248,0.0,5.0,82,0.00,,,0.00,Wunderground v.1.15,2013-04-16 12:19:00,
2013-04-16 05:24:00,37.8,32.8,29.89,WSW,248,0.0,5.0,82,0.00,,,0.00,Wunderground v.1.15,2013-04-16 12:24:00,
2013-04-16 05:34:00,37.0,32.3,29.90,WSW,248,0.0,5.0,83,0.00,,,0.00,Wunderground v.1.15,2013-04-16 12:34:00,
2013-04-16 05:44:00,37.0,32.6,29.90,WNW,289,1.0,5.0,84,0.00,,,0.00,Wunderground v.1.15,2013-04-16 12:44:00,
2013-04-16 05:49:00,37.5,32.8,29.90,WNW,289,1.0,1.0,83,0.00,,,0.00,Wunderground v.1.15,2013-04-16 12:49:00,
2013-04-16 05:59:00,38.2,32.9,29.90,NNW,336,1.0,5.0,81,0.00,,,0.00,Wunderground v.1.15,2013-04-16 12:59:00,
2013-04-16 06:04:00,38.5,32.9,29.90,WNW,295,1.0,5.0,80,0.00,,,0.00,Wunderground v.1.15,2013-04-16 13:04:00,
2013-04-16 06:14:00,39.1,32.5,29.90,NNW,342,1.0,6.0,77,0.00,,,0.00,Wunderground v.1.15,2013-04-16 13:14:00,
2013-04-16 06:24:00,39.3,32.7,29.90,NW,319,1.0,6.0,77,0.00,,,0.00,Wunderground v.1.15,2013-04-16 13:24:00,
2013-04-16 06:29:00,39.6,32.7,29.91,NW,315,2.0,2.0,76,0.00,,,0.00,Wunderground v.1.15,2013-04-16 13:29:00,
2013-04-16 06:39:00,39.8,32.8,29.91,NW,313,1.0,6.0,76,0.00,,,0.00,Wunderground v.1.15,2013-04-16 13:39:00,
2013-04-16 06:49:00,40.1,33.1,29.91,WNW,301,2.0,2.0,76,0.00,,,0.00,Wunderground v.1.15,2013-04-16 13:49:00,
2013-04-16 06:54:00,40.1,33.1,29.91,NNE,25,2.0,7.0,76,0.00,,,0.00,Wunderground v.1.15,2013-04-16 13:54:00,
2013-04-16 07:04:00,40.2,32.9,29.92,North,359,1.0,7.0,75,0.00,,,0.00,Wunderground v.1.15,2013-04-16 14:04:00,
2013-04-16 07:14:00,40.6,33.0,29.92,NW,323,2.0,7.0,74,0.00,,,0.00,Wunderground v.1.15,2013-04-16 14:14:00,
2013-04-16 07:19:00,40.9,32.6,29.92,WNW,298,3.0,7.0,72,0.00,,,0.00,Wunderground v.1.15,2013-04-16 14:19:00,
2013-04-16 07:29:00,41.6,32.9,29.93,WNW,298,3.0,3.0,71,0.00,,,0.00,Wunderground v.1.15,2013-04-16 14:29:00,
2013-04-16 07:39:00,42.3,33.2,29.93,WNW,296,3.0,3.0,70,0.00,,,0.00,Wunderground v.1.15,2013-04-16 14:39:00,
2013-04-16 07:44:00,42.8,33.7,29.94,NW,322,3.0,11.0,70,0.00,,,0.00,Wunderground v.1.15,2013-04-16 14:44:00,
2013-04-16 07:54:00,44.1,33.5,29.94,North,0,4.0,4.0,66,0.00,,,0.00,Wunderground v.1.15,2013-04-16 14:54:00,
2013-04-16 08:04:00,45.2,33.7,29.93,NNW,344,3.0,5.0,64,0.00,,,0.00,Wunderground v.1.15,2013-04-16 15:04:00,
2013-04-16 08:09:00,45.7,33.4,29.93,NW,305,3.0,3.0,62,0.00,,,0.00,Wunderground v.1.15,2013-04-16 15:09:00,
2013-04-16 08:19:00,46.5,32.9,29.94,NNW,332,3.0,11.0,59,0.00,,,0.00,Wunderground v.1.15,2013-04-16 15:19:00,
2013-04-16 08:24:00,47.1,32.6,29.94,East,83,3.0,11.0,57,0.00,,,0.00,Wunderground v.1.15,2013-04-16 15:24:00,
2013-04-16 08:34:00,48.0,32.6,29.94,NE,42,4.0,11.0,55,0.00,,,0.00,Wunderground v.1.15,2013-04-16 15:34:00,
2013-04-16 08:44:00,48.5,32.6,29.94,NNW,335,4.0,11.0,54,0.00,,,0.00,Wunderground v.1.15,2013-04-16 15:44:00,
2013-04-16 08:49:00,49.1,34.1,29.94,North,7,4.0,4.0,56,0.00,,,0.00,Wunderground v.1.15,2013-04-16 15:49:00,
2013-04-16 08:59:00,49.8,31.9,29.93,WNW,282,4.0,11.0,50,0.00,,,0.00,Wunderground v.1.15,2013-04-16 15:59:00,
2013-04-16 09:09:00,50.2,32.3,29.93,NNW,337,5.0,5.0,50,0.00,,,0.00,Wunderground v.1.15,2013-04-16 16:09:00,
2013-04-16 09:19:00,51.3,32.8,29.93,North,359,3.0,3.0,49,0.00,,,0.00,Wunderground v.1.15,2013-04-16 16:19:00,
2013-04-16 09:29:00,51.7,32.6,29.94,NW,305,3.0,14.0,48,0.00,,,0.00,Wunderground v.1.15,2013-04-16 16:29:00,
2013-04-16 09:34:00,52.0,32.4,29.94,North,0,3.0,14.0,47,0.00,,,0.00,Wunderground v.1.15,2013-04-16 16:34:00,
2013-04-16 09:44:00,51.6,30.9,29.94,NNW,343,5.0,14.0,45,0.00,,,0.00,Wunderground v.1.15,2013-04-16 16:44:00,
2013-04-16 09:49:00,51.9,31.7,29.94,NNW,336,4.0,12.0,46,0.00,,,0.00,Wunderground v.1.15,2013-04-16 16:49:00,
2013-04-16 09:59:00,52.5,33.4,29.94,NE,37,5.0,12.0,48,0.00,,,0.00,Wunderground v.1.15,2013-04-16 16:59:00,
2013-04-16 10:04:00,53.2,32.9,29.94,WNW,292,4.0,12.0,46,0.00,,,0.00,Wunderground v.1.15,2013-04-16 17:04:00,
2013-04-16 10:14:00,53.1,32.8,29.94,NW,308,6.0,6.0,46,0.00,,,0.00,Wunderground v.1.15,2013-04-16 17:14:00,
2013-04-16 10:24:00,53.8,33.5,29.94,WNW,298,5.0,17.0,46,0.00,,,0.00,Wunderground v.1.15,2013-04-16 17:24:00,
2013-04-16 10:29:00,54.4,32.9,29.94,NNE,31,4.0,17.0,44,0.00,,,0.00,Wunderground v.1.15,2013-04-16 17:29:00,
2013-04-16 10:39:00,54.7,32.0,29.94,West,264,5.0,17.0,42,0.00,,,0.00,Wunderground v.1.15,2013-04-16 17:39:00,
2013-04-16 10:49:00,54.8,32.1,29.94,NW,318,5.0,16.0,42,0.00,,,0.00,Wunderground v.1.15,2013-04-16 17:49:00,
2013-04-16 10:54:00,55.3,33.2,29.94,NNW,340,5.0,16.0,43,0.00,,,0.00,Wunderground v.1.15,2013-04-16 17:54:00,
2013-04-16 11:04:00,56.3,33.5,29.94,NNW,330,4.0,16.0,42,0.00,,,0.00,Wunderground v.1.15,2013-04-16 18:04:00,